Refine Search
Year Filed

2004 ×

Court

Click on desired case number or refine your search to continue

Case TitleCourtCase NoChpDate FiledClosedDisposition
Racing Services, Inc.North Dakota3:04-bk-30236702/03/2004
Bake-Line Group, LLCDelaware1:04-bk-10104701/12/2004
Louis S. Robles, P.A.Florida Southern1:04-bk-16686707/14/2004
Quality Properties, Ltd., an Iowa corporationIllinois Central1:04-bk-854611112/10/200404/12/2007Dismissed for Other Reason
Sapphire Properties, Inc., an Illinois corporationIllinois Central1:04-bk-854601112/10/200410/30/2006Dismissed for Other Reason
Breckenridge Properties, Ltd., an Iowa corporationIllinois Central1:04-bk-854591112/10/200410/24/2006Dismissed for Other Reason
Cheyenne Properties, Ltd., an Iowa corporationIllinois Central1:04-bk-854581112/10/200410/24/2006Dismissed for Other Reason
Eagle Properties, Ltd., an Iowa corporationIllinois Central1:04-bk-854571112/10/200412/04/2006Dismissed for Other Reason
Platinum Properties, Ltd., an Illinois corporationIllinois Central1:04-bk-854531112/09/200410/24/2006Dismissed for Other Reason
Golden Properties, Ltd., an Iowa corporationIllinois Central1:04-bk-85452712/09/200402/22/2013Discharge Not Applicable
Bi-State Properties, Ltd. an Iowa CorporationIllinois Central1:04-bk-854501112/09/200410/24/2006Dismissed for Other Reason
Equitylink I, Inc. and Equitylink, LLCColorado1:04-bk-376221112/23/200412/04/2007Discharge Not Applicable
AST Sports Science, Inc.Colorado1:04-bk-191761104/30/200406/18/2007Discharge Not Applicable
Gunnison Center Apartments, LPColorado1:04-bk-330791110/21/200404/28/2006Dismissed for Other Reason
D.E. Frey Group, Inc.Colorado1:04-bk-119061102/05/200408/18/2010Discharge Not Applicable
Git-N-Go, Inc.Oklahoma Northern4:04-bk-105091101/30/200401/30/2009Discharge Not Applicable
21st Century Properties LLCCalifornia Southern3:04-bk-103471112/06/200403/10/2009Dismissed for Other Reason 03/10/2009
21st Century Oil - Home LLCCalifornia Southern3:04-bk-103431112/06/200403/10/2009Dismissed for Other Reason 03/10/2009
21st Century Oil - Otay Mesa, LLCCalifornia Southern3:04-bk-103441112/06/200403/10/2009Dismissed for Other Reason 03/10/2009
21st Century - Long Beach, LLCCalifornia Southern3:04-bk-103451112/06/200403/10/2009Dismissed for Other Reason 03/10/2009
21st Century Oil-Haster, LLCCalifornia Southern3:04-bk-103421112/06/200403/10/2009Dismissed for Other Reason 02/20/2009
Quantom Technologies, Inc., t/a Computer, Etc.Maryland0:04-bk-31236709/14/200406/07/2006Discharge Not Applicable
CO Liquidation, Inc.California Northern3:04-bk-328201110/06/200401/06/2021
Sheldon Concrete Services, Inc.Texas Southern4:04-bk-41848708/20/200406/17/2008Discharge Not Applicable
Barry A Hammer and Able Mortgage & Investments IncWashington Western2:04-bk-22244709/17/2004
American International Refinery, Inc. and American International Petroleum CorporationLouisiana Western2:04-bk-213311110/07/2004
Muirhead Motor Co., Inc.Georgia Northern3:04-bk-12494708/10/200403/16/2007Discharge Not Applicable 03/16/2007
Atlantic Baking Group, Inc.Delaware1:04-bk-10105701/12/2004
The Lifelike CompanyColorado1:04-bk-11529701/29/200403/25/2009Discharge Not Applicable
Star Recreation, Inc.Colorado1:04-bk-27567708/13/200401/25/2006Discharge Not Applicable
CashPoint Network Services, Inc.New York Southern1:04-bk-12771704/22/200404/23/2018Discharge Not Applicable
Polo BuildersIllinois Northern1:04-bk-23758706/23/200402/17/2016
GUARDIAN SECURITY INC.Nevada2:04-bk-21228711/02/200406/16/2010
METROPOLITAN MORTGAGE & SECURITIES CO and SUMMIT SECURITIES INCWashington Eastern2:04-bk-007571102/04/2004
Robotic Vision Systems, Inc. and Auto Image ID, Inc.New Hampshire1:04-bk-14151711/19/200405/25/2017Discharge Not Applicable
Xelan Financial Planning, Inc.California Southern3:04-bk-058341106/30/200407/06/2010Standard Discharge 07/06/2010
Xelan Inc.California Southern3:04-bk-058321106/30/200401/13/2011Standard Discharge 01/13/2011
Xelan Pension Services, Inc.California Southern3:04-bk-058351106/30/200407/06/2010Standard Discharge 07/06/2010
A & B Davis, IncOregon6:04-bk-63199704/23/2004
Rood Trucking Company, Inc.Ohio Northern4:04-bk-402271101/23/200411/06/2007Standard Discharge
Galey & Lord, Inc.Georgia Northern4:04-bk-43098708/19/200401/30/2013
Per Response Marketing IncIllinois Northern1:04-bk-22042706/09/200409/03/2004Discharge Not Applicable 09/03/2004
Interstate Bakeries CorporationMissouri Western4:04-bk-458141109/22/200403/12/2013Discharge Not Applicable
Drake Business Schools CorporationNew York Eastern1:04-bk-18288706/03/2004
Fellowship Baptist Church of Pine Hills, Inc.Florida Middle6:04-bk-054631105/11/200410/03/2005Discharge Not Applicable
801 Dillingham Bldg., LLCHawaii1:04-bk-00881704/06/200412/03/2007Discharge Not Applicable 12/03/2007
Premier Freightliner, Inc.Texas Western3:04-bk-305141103/01/200409/28/2006Discharge Not Applicable
M G International LLCIllinois Northern1:04-bk-24317706/29/2004
Helsan Neckwear, Ltd.New York Southern1:04-bk-143261106/23/200403/04/2009
MGA Farmers Market, Inc.New York Eastern8:04-bk-800701101/07/200405/24/2004Dismissed for Other Reason 05/10/2004